Flag for Ireland Weather past 2 weeks in Dublin, Ireland

Now
48 °F

Passing clouds.


Feels Like: 44 °F
Forecast: 47 / 60 °F
Wind: 10 mph from Northwest

Location: Dublin Airport

Current Time: Sep 1, 2015 at 1:48:44 AM

Latest Report: Sep 1, 2015 at 1:00 AM


Visibility: N/A

Pressure: 30.12 "Hg

Humidity: 94%

Dew point: 46 °F

Location of DublinLocation

Historic Weather in Dublin — Graph

°F

Dublin temperature yesterday

Maximum temperature yesterday: 61 °F (at 12:00 PM)
Minimum temperature yesterday: 46 °F (at 12:00 AM)
Average temperature yesterday: 53 °F

Past Weeks' High & Low Weather Summary

 TemperatureHumidityPressure
High73 °F (Aug 18, 4:30 PM)100% (Aug 17, 1:00 AM)30.12 "Hg (Aug 17, 1:00 AM)
Low39 °F (Aug 25, 5:00 AM)46% (Aug 21, 2:00 PM)29.30 "Hg (Aug 26, 5:00 AM)
Average58 °F82%29.80 "Hg
* Reported Aug 17 1:00 AM — Sep 1 1:00 AM, Dublin, Weather by CustomWeather, © 2015

Note: Actual official high and low records may vary slightly from our data, if they occured in-between our weather recording intervals... More about our weather records

Advertising

Dublin weather history for previous 24 hours

 ConditionsComfort  
Time TempWeatherWind HumidityBarometerVisibility
1:00 AM
Tue, Sep 1
48 °FPassing clouds.10 mph94%30.12 "HgN/A
12:30 AM48 °FPassing clouds.10 mph94%30.12 "HgN/A
12:00 AM48 °FPassing clouds.9 mph100%30.12 "HgN/A
10:30 PM
Mon, Aug 31
48 °FPassing clouds.8 mph100%30.09 "HgN/A
10:00 PM48 °FPartly cloudy.8 mph100%30.09 "HgN/A
9:30 PM48 °FPassing clouds.7 mph94%30.09 "HgN/A
9:00 PM52 °FScattered clouds.6 mph88%30.09 "HgN/A
8:30 PM54 °FPartly sunny.8 mph94%30.09 "HgN/A
8:00 PM55 °FPartly sunny.7 mph88%30.09 "HgN/A
7:30 PM55 °FPartly sunny.8 mph94%30.09 "HgN/A
7:00 PM55 °FPartly sunny.6 mph88%30.09 "HgN/A
6:30 PM55 °FPartly sunny.5 mph88%30.09 "HgN/A
6:00 PM55 °FSprinkles. Broken clouds.5 mph94%30.09 "HgN/A
5:30 PM57 °FSprinkles. Broken clouds.6 mph88%30.07 "HgN/A
5:00 PM59 °FSprinkles. Broken clouds.3 mph77%30.07 "HgN/A
4:30 PM57 °FSprinkles. Scattered clouds.5 mph82%30.07 "HgN/A
4:00 PM55 °FScattered clouds.7 mph88%30.07 "HgN/A
3:30 PM55 °FSprinkles. Broken clouds.7 mph88%30.07 "HgN/A
3:00 PM57 °FSprinkles. Broken clouds.8 mph82%30.07 "HgN/A
2:30 PM61 °FBroken clouds.5 mph72%30.07 "HgN/A
2:00 PM61 °FBroken clouds.7 mph68%30.07 "HgN/A
1:30 PM59 °FScattered clouds.6 mph72%30.07 "HgN/A
1:00 PM59 °FScattered clouds.8 mph72%30.07 "HgN/A
12:30 PM59 °FBroken clouds.7 mph77%30.07 "HgN/A
12:00 PM61 °FBroken clouds.8 mph68%30.07 "HgN/A
11:30 AM57 °FBroken clouds.7 mph82%30.07 "HgN/A
11:00 AM57 °FBroken clouds.8 mph82%30.07 "HgN/A
10:30 AM57 °FBroken clouds.7 mph82%30.07 "HgN/A
10:00 AM57 °FBroken clouds.6 mph88%30.07 "HgN/A
9:30 AM55 °FBroken clouds.6 mph94%30.07 "HgN/A
9:00 AM54 °FBroken clouds.6 mph94%30.07 "HgN/A
8:30 AM54 °FPartly sunny.3 mph94%30.07 "HgN/A
8:00 AM52 °FPartly sunny.5 mph100%30.07 "HgN/A
7:30 AM52 °FPassing clouds.5 mph94%30.07 "HgN/A
7:00 AM50 °FPassing clouds.5 mph100%30.07 "HgN/A
6:30 AM50 °FPassing clouds.3 mph100%30.07 "HgN/A
6:00 AM50 °FPassing clouds.3 mph100%30.07 "HgN/A
5:30 AM50 °FPassing clouds.5 mph100%30.07 "HgN/A
5:00 AM50 °FPassing clouds.6 mph100%30.07 "HgN/A
4:30 AM50 °FPassing clouds.6 mph94%30.07 "HgN/A
4:00 AM48 °FPassing clouds.7 mph100%30.07 "HgN/A
3:30 AM48 °FPassing clouds.7 mph100%30.07 "HgN/A
3:00 AM48 °FPassing clouds.6 mph100%30.09 "HgN/A
2:30 AM48 °FPartly cloudy.3 mph94%30.09 "HgN/A
2:00 AM48 °FPassing clouds.3 mph94%30.07 "HgN/A
1:30 AM48 °FPassing clouds.6 mph94%30.09 "HgN/A
1:00 AM46 °FPassing clouds.2 mph100%30.09 "HgN/A
Weather by CustomWeather, © 2015

See weather overviewHow to use our weather pages